Location: Montreal
(45.5087°N, 73.5540°W)
Time: 12:23:06
(UTC-04:00)

ISS - Visible Passes

Search period start: 19 May 2019 00:00
Search period end: 29 May 2019 00:00
Orbit: 407 x 410 km, 51.6° (Epoch: 20 May)

Date Brightness Start Highest point End Pass type
(mag) Time Alt. Az. Time Alt. Az. Time Alt. Az.
19 May -1.6 00:42:38 10° WNW 00:45:31 27° N 00:48:25 10° ENE visible
19 May -2.6 02:19:26 10° NW 02:22:37 43° NNE 02:25:49 10° E visible
19 May -3.3 03:56:05 10° WNW 03:59:11 38° SW 04:02:17 10° SSE visible
19 May -3.5 22:14:13 10° WSW 22:17:30 69° NNW 22:20:49 10° ENE visible
19 May -1.7 23:51:32 10° WNW 23:54:28 28° N 23:57:23 10° NE visible
20 May -2.1 01:28:33 10° NW 01:31:37 34° NNE 01:34:41 10° E visible
20 May -3.9 03:05:05 10° WNW 03:08:22 65° SSW 03:11:39 10° SE visible
20 May -3.9 21:23:19 10° SW 21:26:36 75° SSE 21:29:54 10° ENE visible
20 May -1.9 23:00:23 10° WNW 23:03:24 32° NNW 23:06:26 10° NE visible
21 May -1.8 00:37:37 10° NW 00:40:34 29° N 00:42:20 18° ENE visible
21 May -1.4 02:14:10 10° WNW 02:14:58 16° WNW 02:14:58 16° WNW visible
21 May -2.4 22:09:13 10° W 22:12:22 40° NNW 22:15:31 10° NE visible
21 May -1.6 23:46:36 10° WNW 23:49:29 27° N 23:52:17 11° ENE visible
22 May -1.9 01:23:17 10° NW 01:24:58 26° NW 01:24:58 26° NW visible
22 May -3.0 21:18:06 10° WSW 21:21:21 56° NNW 21:24:38 10° ENE visible
22 May -1.6 22:55:29 10° WNW 22:58:23 27° N 23:01:17 10° ENE visible
23 May -2.4 00:32:22 10° NW 00:35:21 38° N 00:35:21 38° N visible
23 May -1.8 22:04:19 10° WNW 22:07:17 30° N 22:10:15 10° NE visible
23 May -2.0 23:41:26 10° NW 23:44:27 31° N 23:45:51 22° NE visible
24 May -1.2 01:17:58 10° WNW 01:18:33 14° WNW 01:18:33 14° WNW visible
24 May -2.1 21:13:06 10° W 21:16:11 35° NNW 21:19:17 10° NE visible
24 May -1.8 22:50:25 10° NW 22:53:20 28° N 22:56:15 10° ENE visible
25 May -2.3 00:27:01 10° WNW 00:29:08 35° NW 00:29:08 35° NW visible
25 May -1.7 21:59:19 10° WNW 22:02:11 27° N 22:05:04 10° ENE visible
25 May -2.8 23:36:05 10° NW 23:39:17 44° NNE 23:39:44 41° NE visible
26 May -1.7 21:08:07 10° WNW 21:11:03 28° N 21:13:59 10° NE visible
26 May -2.3 22:45:08 10° NW 22:48:12 34° NNE 22:50:22 16° ENE visible
27 May -1.8 00:21:39 10° WNW 00:23:04 23° WNW 00:23:04 23° WNW visible
27 May -1.9 21:54:06 10° NW 21:57:04 29° N 22:00:01 10° ENE visible
27 May -3.6 23:30:39 10° WNW 23:33:43 72° NNW 23:33:43 72° NNW visible
28 May -1.8 21:03:01 10° WNW 21:05:54 27° N 21:08:47 10° ENE visible
28 May -3.2 22:39:41 10° NW 22:42:56 52° NNE 22:44:24 28° E visible
